Other Public Products
Issued by NWS Grand Forks, ND

Home | Current Version | Previous Version | Graphics & Text | Print | Product List | Glossary On
Versions: 1 2 3 4 5 6 7 8 9 10 11 12 13 14 15 16 17 18 19 20 21 22 23 24 25 26 27 28 29 30 31 32 33 34 35 36 37 38 39 40 41 42 43 44 45 46 47 48 49 50
000
FPUS83 KFGF 032210
OPUFGF
PRAIRIE TO PINES WEATHER ROUNDUP
NATIONAL WEATHER SERVICE EASTERN NORTH DAKOTA/GRAND FORKS ND
500 PM CDT FRI JUL 03 2015

 **SATELLITE DATA USED TO AUGMENT SKY COVER AT AUTOMATED STATIONS**
 *****  WEATHER ACROSS EASTERN NORTH DAKOTA  *****

CITY           SKY/WX    TMP DP  RH WIND       PRES   REMARKS
GRAND FORKS    MOSUNNY   81  59  47 N6        29.90F HAZE
GRAND FORKS AF SUNNY     80  59  48 NE6       29.92S
GRAND CITY NWS   N/A     81 N/A N/A N3          N/A
BUXTON         NOT AVBL
DEVILS LAKE    SUNNY     81  61  50 SW7       29.92F
FARGO          MOSUNNY   82  62  50 N7        29.90F HAZE
WAHPETON ARPT  CLEAR     81  59  47 N5        29.91F
$$

 *****  WEATHER ACROSS CENTRAL AND WESTERN NORTH DAKOTA  *****

CITY           SKY/WX    TMP DP  RH WIND       PRES   REMARKS
JAMESTOWN      CLOUDY    81  61  50 E3        29.93F HAZE
BISMARCK       PTSUNNY   81  63  54 VRB7      29.94F HAZE
MINOT          CLOUDY    82  61  48 S6        29.91F HAZE
MINOT AFB      SUNNY     84  70  63 S5        29.91F HAZE
GARRISON         N/A     79  63  57 CALM      29.93F
WILLISTON      SUNNY     86  55  34 SW5       29.91F
DICKINSON      MOSUNNY   82  61  48 SE10      29.94F
HETTINGER      PTSUNNY   84  57  39 E6        29.97F
$$

 *****  OTHER OBSERVATIONS NORTHEAST NORTH DAKOTA  *****

CITY           SKY/WX    TMP DP  RH WIND       PRES   REMARKS
WALHALLA       FAIR      77  61  57 MISG      29.92F HAZE
LANGDON        FAIR      79  61  53 CALM      29.96S HAZE
CAVALIER       FAIR      79  59  50 CALM      29.92F HAZE
GRAFTON        FAIR      79  61  53 NW3       29.93S HAZE
CANDO          FAIR      81  61  50 E6        29.94S
FORT TOTTEN      N/A     84  61  45 N3        29.95S
ROLLA            N/A     77  61  57 E8        29.95F
RUGBY          NOT AVBL
 ***** THE ABOVE OBSERVATIONS ARE NON NWS ARE NOT QUALITY
        CONTROLLED AND MAY MIS-REPORT RAIN FOR SNOW...
$$

 *****  OTHER OBSERVATIONS SOUTHEAST NORTH DAKOTA *****

CITY           SKY/WX    TMP DP  RH WIND       PRES   REMARKS
COOPERSTOWN    NOT AVBL
VALLEY CITY    FAIR      82  63  51 E3        29.93F HAZE
OAKES            N/A     81  70  69 NW5       29.92F HAZE
GWINNER          N/A     82  64  54 CALM      29.93F
SHEYENNE NWR     N/A     83  64  52 E3        29.95
BUFFALO        NOT AVBL
WYNDMERE       NOT AVBL
 ***** THE ABOVE OBSERVATIONS ARE NON NWS ARE NOT QUALITY
       CONTROLLED AND MAY MIS-REPORT RAIN FOR SNOW...
$$

  *****  WEATHER ACROSS NORTHERN MINNESOTA  *****

CITY           SKY/WX    TMP DP  RH WIND       PRES   REMARKS
FLAG ISLAND    SUNNY     79  54  41 CALM      29.89F
WARROAD        SUNNY     77  61  57 E8        29.91F
ROSEAU         SUNNY     79  59  50 N6        29.91S
HALLOCK        SUNNY     79  63  57 NW5       29.91S HAZE
THF RVR FALLS  SUNNY     79  61  53 NW8       29.92F
HALSTAD        NOT AVBL
FOSSTON        SUNNY     77  61  57 CALM      29.93F HAZE
BAUDETTE       SUNNY     79  54  41 N7        29.91S
WASKISH        SUNNY     79  54  41 N6        29.91S
CROOKSTON      SUNNY     79  63  57 N6        29.92S HAZE
$$
  *****  WEATHER ACROSS CENTRAL AND WEST MINNESOTA  *****

CITY           SKY/WX    TMP DP  RH WIND       PRES   REMARKS
BEMIDJI        MOSUNNY   78  58  50 NW10      29.92S
PARK RAPIDS    CLOUDY    81  60  48 N7        29.91F HAZE
WADENA         MOSUNNY   79  59  50 N3        29.92S HAZE
DETROIT LAKES  MOSUNNY   79  59  50 N3        29.94F HAZE
MOORHEAD       MOSUNNY   81  63  54 CALM      29.91F HAZE
FERGUS FALLS   SUNNY     81  61  50 N5        29.90F HAZE
ELBOW LAKE     FAIR      79  64  58 CALM      29.92S HAZE
MORRIS MN      SUNNY     82  64  54 NW6       29.91F HAZE
STAPLES        MOSUNNY   81  57  44 NW6       29.91F HAZE
WHEATON        SUNNY     79  64  61 CALM      29.93F HAZE
$$
  *****  WEATHER ELSEWHERE ACROSS MINNESOTA  *****

CITY           SKY/WX    TMP DP  RH WIND       PRES   REMARKS
DULUTH         MOSUNNY   80  60  50 NW10      29.87S SMOKE
INTRNTL FALLS  MOSUNNY   79  51  37 N9        29.89S
ELY            SUNNY     77  52  41 NW6       29.87S
CLOQUET        SUNNY     81  55  41 NW8       29.87F HAZE
BRAINERD       CLOUDY    80  61  52 N3        29.90F HAZE
HIBBING        SUNNY     77  56  48 NW12      29.89R
ALEXANDRIA     MOSUNNY   79  63  57 N5        29.94F HAZE
SAINT CLOUD    PTSUNNY   81  64  56 SW12      29.90F
MINNEAPOLIS    CLOUDY    79  57  46 W7        29.91F
$$

  *****  WEATHER ACROSS SOUTH DAKOTA  *****

CITY           SKY/WX    TMP DP  RH WIND       PRES   REMARKS
SIOUX FALLS    PTSUNNY   78  62  57 VRB3      29.97F
BROOKINGS      MOSUNNY   79  64  61 W7        29.97F
WATERTOWN      MOSUNNY   80  64  58 VRB6      29.95F HAZE
HURON          CLOUDY    79  67  66 SE7       29.93F
SISSETON         N/A     82  63  52 N3        29.91F
ABERDEEN       PTSUNNY   82  64  54 E5        29.93F HAZE
MITCHELL       MOSUNNY   81  65  58 SE5       29.95F
PIERRE         MOSUNNY   81  62  52 W6        29.95F HAZE
MOBRIDGE       SUNNY     84  64  50 CALM      29.93F HAZE
RAPID CITY     SUNNY     80  61  52 SE9       30.00F
$$

  *****  SOME WEATHER IN NEARBY STATES *****

CITY           SKY/WX    TMP DP  RH WIND       PRES   REMARKS
GLASGOW MT     SUNNY     87  52  29 S8        29.87F
GREAT FALLS MT MOSUNNY   91  42  18 VRB7      29.88F
CHEYENNE WY    MOSUNNY   80  56  43 VRB6      30.15F
SCOTTSBLUFF NE SUNNY     86  55  34 VRB7      30.03F
OMAHA NE       SUNNY     79  55  43 NW6       29.97F
DES MOINES IA  SUNNY     78  54  43 VRB5      29.95F
DAVENPORT IA   SUNNY     77  59  53 NW5       29.94F
CHICAGO IL     PTSUNNY   75  53  46 E8        29.92F
EAU CLAIRE WI  SUNNY     77  58  51 SW8       29.91F
LA CROSSE WI   SUNNY     78  57  48 SW6       29.92F
$$

  *****  SOME NATIONAL WEATHER *****

CITY           SKY/WX    TMP DP  RH WIND       PRES   REMARKS
LA GUARDIA NY  PTSUNNY   78  55  44 S8        29.95S
RALEIGH NC     CLOUDY    77  72  84 SW8       29.91R
ATLANTA GA     CLOUDY    78  69  73 W8        30.01F
NEW ORLEANS LA CLOUDY    92  73  53 S13       29.99F HX 100
OKLAHOMA CITY  PTSUNNY   85  69  58 S13       29.92S
ALBUQUERQUE NM PTSUNNY   87  54  32 VRB3      30.09F
SALT LAKE CITY PTSUNNY   98  43  15 SW8       29.95F HX  94
LOS ANGELES CA PTSUNNY   68  61  78 W17       29.91F
BOISE ID       SUNNY    100  39  12 W14G21    29.86F HX  95
SEATTLE WA     SUNNY     89  52  28 W8        29.92F
$$

*** WEATHER ACROSS MANITOBA...SASKATCHEWAN AND ONTARIO ***
                ***ONTARIO***

CITY           SKY/WX    TMP DP  RH WIND       PRES   REMARKS
GERALDTON      CLOUDY    70  57  64 NW12G20   29.80R
THUNDER BAY    PTSUNNY   79  55  44 NW12G17   29.81R
SIOUX LOOKOUT  MOSUNNY   72  54  53 N7        29.90S
TORONTO        PTSUNNY   70  41  35 S8        29.94F
BIG TROUT LK   SUNNY     72  45  37 NE7       29.87S
PICKLE LAKE    MOSUNNY   68  50  52 NW12      29.89R
DRYDEN         PTSUNNY   75  52  43 NE9G17    29.91S
KENORA         PTSUNNY   79  52  38 VRB3      29.91F
$$
                *** MANITOBA***

CITY           SKY/WX    TMP DP  RH WIND       PRES   REMARKS
BRANDON        CLOUDY    79  63  57 W6        29.91F SMOKE
DAUPHIN        SUNNY     81  61  50 SW8       29.86F HAZE
ISLAND LAKE    MOSUNNY   75  50  41 SE7       29.89F
PILOT MOUND      N/A     75  55  50 E5          N/A
THE PAS        CLOUDY    79  64  61 SE12      29.76F SMOKE
THOMPSON       CLOUDY    79  50  36 S9G17     29.78F
WINNIPEG       SUNNY     79  61  53 W3        29.91S SMOKE
LYNN LAKE      MOSUNNY   75  55  50 S9G20     29.66F HAZE
CHURCHILL      PTSUNNY   52  46  82 E18       29.90S
GILLAM         CLOUDY    75  50  41 SW9       29.83F
$$
                ***SASKATCHEWAN***

CITY           SKY/WX    TMP DP  RH WIND       PRES   REMARKS
ESTEVAN        CLOUDY    79  64  61 S7        29.91F SMOKE
KINDERSLEY     MOSUNNY   88  59  37 S7        29.79F
LLOYDMINSTER   TSTM      81  61  50 W25G32    29.75F
PRINCE ALBERT  PTSUNNY   86  61  42 SW17G24   29.74F
REGINA         PTSUNNY   84  59  42 S10       29.87F SMOKE


USA.gov is the U.S. government's official web portal to all federal, state and local government web resources and services.